This demonstration page uses our WeatherBlox Daily Observations layout. Learn more.

Left ArrowRight Arrow

39.92423, -83.80882

Hourly Observations for November 10, 2015

Temp ( °F °C ) Dew Point ( °F °C ) Humidity (%) Winds ( mph kmh ) Pressure ( in mb ) Visibility ( mi km ) Precip ( " mm )
12:19 am 00:19 Cloudy with Mist and Fog 46 8 45 7 93 93 NNE 3 6 30.12 1020 1.5 2.41401 0 0
12:56 am 00:56 Cloudy with Light Rain 45 7.2 45 7.2 100 100 NW 5 7 30.09 1019 1.25 2.011675 0.03 0.762
1:12 am 01:12 Cloudy with Light Rain 45 7 45 7 100 100 NNW 6 9 30.09 1019 1.25 2.011675 0.01 0.254
1:29 am 01:29 Cloudy with Light Rain 45 7 45 7 100 100 NNW 7 11 30.09 1019 1.5 2.41401 0.02 0.508
1:56 am 01:56 Cloudy with Mist and Fog 45 7.2 45 7.2 100 100 N 7 11 30.07 1018 1.75 2.816345 0.03 0.762
2:08 am 02:08 Cloudy with Mist and Fog 45 7 45 7 100 100 N 8 13 30.09 1019 2.5 4.02335 0 0
2:56 am 02:56 Cloudy with Mist and Fog 45 7.2 45 7.2 100 100 N 8 13 30.06 1018 3 4.82802 0.01 0.254
3:56 am 03:56 Cloudy with Light Rain 45 7.2 45 7.2 100 100 N 7 11 30.05 1018 2.5 4.02335 0.01 0.254
4:44 am 04:44 Cloudy with Mist and Fog 45 7 45 7 100 100 NW 5 7 30.06 1018 3 4.82802 0 0.0254
4:56 am 04:56 Cloudy with Mist and Fog 45 7.2 45 7.2 100 100 W 6 9 30.05 1018 3 4.82802 0 0.0254
5:07 am 05:07 Cloudy with Mist and Fog 45 7 45 7 100 100 W 6 9 30.09 1019 2.5 4.02335 0 0
5:17 am 05:17 Cloudy with Mist and Fog 45 7 45 7 100 100 W 6 9 30.09 1019 1.5 2.41401 0 0
5:56 am 05:56 Cloudy with Mist and Fog 45 7.2 45 7.2 100 100 W 8 13 30.06 1018 2 3.21868 0 0
6:13 am 06:13 Cloudy with Mist and Fog 45 7 45 7 100 100 W 8 13 30.09 1019 3 4.82802 0 0
6:25 am 06:25 Cloudy with Mist and Fog 45 7 45 7 100 100 WNW 10 17 30.09 1019 2.5 4.02335 0 0
6:42 am 06:42 Cloudy with Light Rain 45 7 45 7 100 100 WNW 9 15 30.09 1019 3 4.82802 0 0.0254
6:56 am 06:56 Cloudy with Mist and Fog 45 7.2 45 7.2 100 100 W 8 13 30.07 1018 5 8.0467 0 0.0254
7:25 am 07:25 Cloudy with Light Rain 45 7 45 7 100 100 WNW 9 15 30.09 1019 1.75 2.816345 0.01 0.254
7:31 am 07:31 Cloudy with Light Rain 45 7 45 7 100 100 WNW 8 13 30.09 1019 2 3.21868 0.01 0.254
7:56 am 07:56 Cloudy with Mist and Fog 44 6.6 44 6.6 100 100 W 7 11 30.09 1019 1.5 2.41401 0.02 0.508
8:31 am 08:31 Cloudy with Mist and Fog 45 7 45 7 100 100 W 10 17 30.12 1020 2.5 4.02335 0 0
8:39 am 08:39 Cloudy with Mist and Fog 45 7 45 7 100 100 W 10 17 30.12 1020 3 4.82802 0 0
8:56 am 08:56 Cloudy with Mist and Fog 44 6.6 44 6.6 100 100 W 9 15 30.1 1019 2.5 4.02335 0 0
9:23 am 09:23 Cloudy with Mist and Fog 45 7 45 7 100 100 W 9 15 30.12 1020 4 6.43736 0 0
9:56 am 09:56 Cloudy with Mist and Fog 45 7.2 45 7.2 100 100 W 10 17 30.1 1019 2 3.21868 0 0
10:04 am 10:04 Cloudy with Mist and Fog 45 7 45 7 100 100 W 12 19 30.12 1020 3 4.82802 0 0
10:44 am 10:44 Cloudy with Mist and Fog 45 7 45 7 100 100 WNW 12 19 30.12 1020 2 3.21868 0 0
10:56 am 10:56 Cloudy with Mist and Fog 46 7.7 45 7.2 97 97 W 12 19 30.1 1019 1.75 2.816345 0 0
11:07 am 11:07 Cloudy with Mist and Fog 46 8 45 7 93 93 W 12 19 30.12 1020 2 3.21868 0 0
11:16 am 11:16 Cloudy with Mist and Fog 46 8 45 7 93 93 W 10 17 30.12 1020 5 8.0467 0 0
11:56 am 11:56 Cloudy 46 7.7 45 7.2 97 97 W 14 22 30.11 1020 10 16.0934 0 0
12:56 pm 12:56 Cloudy 46 7.7 45 7.2 97 97 W 9 15 30.09 1019 9 14.48406 0 0
1:14 pm 13:14 Cloudy 46 8 45 7 93 93 W 8 13 30.09 1019 10 16.0934 0 0
1:56 pm 13:56 Cloudy 47 8.3 45 7.2 93 93 W 10 17 30.08 1019 10 16.0934 0 0
2:56 pm 14:56 Cloudy 46 7.7 44 6.6 93 93 W 10 17 30.07 1018 10 16.0934 0 0
3:37 pm 15:37 Cloudy 46 8 45 7 93 93 W 8 13 30.09 1019 10 16.0934 0 0
3:49 pm 15:49 Cloudy 46 8 45 7 93 93 W 9 15 30.09 1019 10 16.0934 0 0
3:56 pm 15:56 Cloudy 47 8.3 44 6.6 89 89 W 8 13 30.08 1019 10 16.0934 0 0
4:05 pm 16:05 Mostly Cloudy 46 8 45 7 93 93 W 9 15 30.09 1019 10 16.0934 0 0
4:26 pm 16:26 Cloudy 46 8 43 6 87 87 W 7 11 30.09 1019 10 16.0934 0 0
4:56 pm 16:56 Cloudy 47 8.3 43 6.1 86 86 WNW 6 9 30.07 1018 10 16.0934 0 0
5:56 pm 17:56 Cloudy 47 8.3 44 6.6 89 89 SW 3 6 30.08 1019 10 16.0934 0 0
6:41 pm 18:41 Cloudy 46 8 45 7 93 93 Calm 30.09 1019 10 16.0934 0 0
6:56 pm 18:56 Cloudy 46 7.7 44 6.6 93 93 S 3 6 30.09 1019 10 16.0934 0 0
7:56 pm 19:56 Partly Cloudy 45 7.2 44 6.6 96 96 SSW 3 6 30.07 1018 10 16.0934 0 0
8:56 pm 20:56 Clear 42 5.5 42 5.5 100 100 SW 6 9 30.09 1019 8 12.87472 0 0
9:56 pm 21:56 Clear with Mist and Fog 40 4.4 40 4.4 100 100 SSW 5 7 30.09 1019 1.5 2.41401 0 0
10:06 pm 22:06 Clear with Mist and Fog 39 4 39 4 100 100 SW 5 7 30.09 1019 3 4.82802 0 0
10:26 pm 22:26 Clear with Mist and Fog 37 3 37 3 100 100 SW 5 7 30.12 1020 1.75 2.816345 0 0
10:28 pm 22:28 Clear with Mist and Fog 37 3 37 3 100 100 SW 5 7 30.12 1020 1 1.60934 0 0
10:39 pm 22:39 Clear with Mist and Fog 37 3 37 3 100 100 SSW 5 7 30.12 1020 1.5 2.41401 0 0
10:47 pm 22:47 Clear with Mist and Fog 37 3 37 3 100 100 SSW 5 7 30.12 1020 2.5 4.02335 0 0
10:56 pm 22:56 Clear with Mist and Fog 39 3.8 39 3.8 100 100 SSW 6 9 30.08 1019 3 4.82802 0 0
11:47 pm 23:47 Clear with Mist and Fog 39 4 39 4 100 100 SSW 5 7 30.09 1019 2.5 4.02335 0 0
11:56 pm 23:56 Clear with Mist and Fog 38 3.3 38 3.3 100 100 SSW 5 7 30.06 1018 1 1.60934 0 0

Powered by AerisWeather